Fort Leonard Wood, MO

1:17 PM CDT on October 14, 2019 (GMT -0500)
Waynesville Regional At Forney Field

Weather History for KTBN - May, 2019

Change the Weather History Date:

Sunday, May 26, 2019

  Actual Average Record
Temperature  
Mean Temperature 73 °F -  
Max Temperature 78 °F 75 °F 95 °F (2012)
Min Temperature 68 °F 58 °F 48 °F (1999)
Cooling Degree Days 8    
Growing Degree Days 23 (Base 50)    
Moisture  
Dew Point 65 °F    
Average Humidity 78    
Maximum Humidity 89    
Minimum Humidity 66    
Precipitation  
Precipitation 0.01 in - - ()
Sea Level Pressure  
Sea Level Pressure 30.07 in    
Wind  
Wind Speed 5 mph (SW)    
Max Wind Speed 13 mph    
Max Gust Speed 18 mph    
Visibility 10 miles    
Events Rain    
Averages and records for this station are not official NWS values.
T = Trace of Precipitation, MM = Missing Value Source: NWS Daily Summary

Daily Weather History Graph

Daily Weather History Graph

Search for Another Location

Airport or City:

Astronomy

May. 26, 2019 Rise Set
Actual Time 5:51 AM CDT 8:20 PM CDT
Civil Twilight 5:21 AM CDT 8:50 PM CDT
Nautical Twilight 4:43 AM CDT 9:28 PM CDT
Astronomical Twilight 4:02 AM CDT 10:09 PM CDT
Moon 1:55 AM CDT (5/26) 12:46 PM CDT (5/26)
Length of Visible Light 15h 29m
Length of Day
14h 29m
Waning Gibbous, 50% of the Moon is Illuminated
May 26
Waning Gibbous
Jun 3
New
Jun 10
First Quarter
Jun 17
Full
Jun 25
Last Quarter

Hourly Weather History & Observations

Time (CDT) Temp. Dew Point Humidity Pressure Visibility Wind Dir Wind Speed Gust Speed Precip Events Conditions
12:56 AM 71.4 °F 66.0 °F 83% 30.03 in 10.0 mi South 3.5 mph - N/A   Partly Cloudy
1:56 AM 71.2 °F 65.1 °F 81% 30.02 in 10.0 mi South 5.8 mph - N/A   Clear
2:56 AM 70.9 °F 64.0 °F 79% 30.01 in 10.0 mi South 6.9 mph - N/A   Clear
3:56 AM 71.4 °F 63.5 °F 76% 30.02 in 10.0 mi SSW 4.6 mph - N/A   Clear
4:56 AM 71.6 °F 63.1 °F 75% 30.02 in 10.0 mi South 6.9 mph - N/A   Clear
5:56 AM 70.7 °F 63.1 °F 77% 29.98 in 10.0 mi SSE 5.8 mph - N/A   Clear
6:56 AM 69.3 °F 63.5 °F 82% 29.99 in 10.0 mi Calm Calm - N/A   Mostly Cloudy
7:56 AM 69.1 °F 64.4 °F 85% 30.03 in 10.0 mi Calm Calm - N/A   Mostly Cloudy
8:56 AM 74.3 °F 65.5 °F 74% 30.06 in 10.0 mi WSW 5.8 mph - N/A   Mostly Cloudy
9:26 AM 73.4 °F 66.2 °F 78% 30.07 in 10.0 mi West 6.9 mph - N/A   Mostly Cloudy
9:41 AM 75.2 °F 66.2 °F 73% 30.07 in 10.0 mi West 6.9 mph - N/A   Scattered Clouds
9:56 AM 75.9 °F 66.2 °F 72% 30.09 in 10.0 mi West 9.2 mph - N/A   Clear
10:56 AM 77.2 °F 64.9 °F 66% 30.09 in 10.0 mi West 5.8 mph - N/A   Mostly Cloudy
11:56 AM 76.3 °F 64.9 °F 68% 30.12 in 10.0 mi WSW 6.9 mph - N/A   Partly Cloudy
12:29 PM 73.4 °F 64.4 °F 73% 30.12 in 10.0 mi WSW 10.4 mph 18.4 mph N/A   Light Drizzle
12:33 PM 73.4 °F 64.4 °F 73% 30.12 in 10.0 mi WSW 12.7 mph 18.4 mph N/A   Clear
12:37 PM 73.4 °F 66.2 °F 78% 30.12 in 10.0 mi WSW 10.4 mph 18.4 mph N/A Rain Light Rain
12:56 PM 70.7 °F 66.6 °F 87% 30.14 in 10.0 mi SW 9.2 mph - 0.01 in Rain Light Rain
1:02 PM 69.8 °F 66.2 °F 88% 30.14 in 10.0 mi SW 9.2 mph - N/A   Partly Cloudy
1:24 PM 69.8 °F 66.2 °F 88% 30.13 in 10.0 mi SW 5.8 mph - N/A   Light Drizzle
1:40 PM 71.6 °F 66.2 °F 83% 30.13 in 10.0 mi SW 4.6 mph - N/A   Partly Cloudy
1:56 PM 71.1 °F 66.0 °F 84% 30.12 in 10.0 mi West 5.8 mph - 0.00 in   Partly Cloudy
2:09 PM 71.6 °F 66.2 °F 83% 30.10 in 10.0 mi Calm Calm - N/A   Light Drizzle
2:19 PM 71.6 °F 66.2 °F 83% 30.10 in 10.0 mi South 6.9 mph - N/A   Partly Cloudy
2:56 PM 74.3 °F 65.1 °F 73% 30.08 in 10.0 mi WNW 3.5 mph - 0.00 in   Mostly Cloudy
3:11 PM 73.4 °F 64.4 °F 73% 30.10 in 10.0 mi NW 4.6 mph - N/A   Mostly Cloudy
3:26 PM 75.2 °F 64.4 °F 69% 30.09 in 10.0 mi WNW 3.5 mph - N/A   Scattered Clouds
3:56 PM 75.9 °F 64.9 °F 69% 30.07 in 10.0 mi Calm Calm - N/A   Clear
4:56 PM 77.2 °F 64.9 °F 66% 30.05 in 10.0 mi West 4.6 mph - N/A   Clear
5:56 PM 77.2 °F 64.9 °F 66% 30.03 in 10.0 mi Calm Calm - N/A   Clear
6:56 PM 76.1 °F 65.5 °F 70% 30.02 in 10.0 mi ESE 5.8 mph - N/A   Partly Cloudy
7:56 PM 74.5 °F 66.4 °F 76% 30.03 in 10.0 mi ESE 4.6 mph - N/A   Clear
8:56 PM 70.0 °F 66.6 °F 89% 30.03 in 10.0 mi Calm Calm - N/A   Clear
9:56 PM 70.3 °F 66.2 °F 87% 30.02 in 10.0 mi East 3.5 mph - N/A   Clear
10:56 PM 70.5 °F 66.0 °F 86% 30.02 in 10.0 mi ESE 4.6 mph - N/A   Clear
11:56 PM 68.9 °F 65.5 °F 89% 30.00 in 10.0 mi SE 6.9 mph - N/A   Clear